Regional Weather Roundup
Issued by NWS Charleston, WV

Home | Current Version | Previous Version | Graphics & Text | Print | Product List | Glossary On
Versions: 1 2 3 4 5 6 7 8 9 10 11 12 13 14 15 16 17 18 19 20 21 22 23 24 25 26 27 28 29 30 31 32 33 34 35 36 37 38 39 40 41 42 43 44 45 46 47 48
000
ASUS41 KRLX 010210
RWRRLX
West Virginia Regional Weather Roundup
National Weather Service Charleston WV
1000 PM EDT TUE SEP 30 2014

Note: "fair" indicates few or no clouds below 12,000 feet with no
significant weather and/or obstructions to visibility.

WVZ003-010300-
Northern Panhandle of West Virginia

CITY           SKY/WX    TMP DP  RH WIND       PRES   REMARKS
WHEELING       MOCLDY    60  57  89 N9        29.95R
$$

WVZ009-010300-
Northwest West Virginia

CITY           SKY/WX    TMP DP  RH WIND       PRES   REMARKS
PARKERSBURG    CLOUDY    62  60  93 NW3       29.97R
$$

WVZ006-010300-
Western West Virginia

CITY           SKY/WX    TMP DP  RH WIND       PRES   REMARKS
HUNTINGTON     MOCLDY    68  59  73 N5        29.93R
$$

WVZ015-010300-
West Central West Virginia

CITY           SKY/WX    TMP DP  RH WIND       PRES   REMARKS
CHARLESTON     CLOUDY    69  59  70 N8        29.92R
$$

WVZ031-010300-
North Central West Virginia

CITY           SKY/WX    TMP DP  RH WIND       PRES   REMARKS
CLARKSBURG     MOCLDY    58  58 100 SE3       29.94R
MORGANTOWN     CLOUDY    60  56  86 N6        29.96R FOG
$$

WVZ035-042-045-010300-
South Central West Virginia

CITY           SKY/WX    TMP DP  RH WIND       PRES   REMARKS
BECKLEY        CLEAR     59  52  77 S6        29.99R
BLUEFIELD      CLEAR     62  52  69 W7        30.02R
LEWISBURG      PTCLDY    60  50  70 CALM      29.98R
$$

WVZ047-010300-
Northern Mountains of West Virginia

CITY           SKY/WX    TMP DP  RH WIND       PRES   REMARKS
ELKINS         MOCLDY    58  55  90 W3        29.97S
$$

WVZ052-010300-
Eastern Panhandle of West Virginia

CITY           SKY/WX    TMP DP  RH WIND       PRES   REMARKS
MARTINSBURG    MOCLDY    64  60  87 NE5       29.95S
PETERSBURG     CLOUDY   N/A N/A N/A NW5       29.96R
$$



USA.gov is the U.S. government's official web portal to all federal, state and local government web resources and services.